Weather History for KJAX - November, 2013

Change the Weather History Date:

Saturday, November 23, 2013

  Actual Average Record
Temperature  
Mean Temperature 69 °F 60 °F  
Max Temperature 82 °F 72 °F 84 °F (1992)
Min Temperature 56 °F 49 °F 28 °F (2000)
Degree Days  
Heating Degree Days 0 6  
Month to date heating degree days 58 97  
Since 1 July heating degree days 79 125  
Cooling Degree Days 4 1  
Month to date cooling degree days 57 52  
Year to date cooling degree days 2595 2635  
Growing Degree Days 18 (Base 50)    
Moisture  
Dew Point 61 °F    
Average Humidity 76    
Maximum Humidity 100    
Minimum Humidity 51    
Precipitation  
Precipitation T in 0.06 in 2.01 in (1998)
Month to date precipitation 1.31 1.61  
Year to date precipitation 42.83 49.09  
Snow  
Snow 0.00 in 0.00 in 0.00 in (2001)
Month to date snowfall 0.0 0.0  
Since 1 July snowfall 0.0 0.0  
Since 1 September snowfall 0.0 0.0  
Snow Depth 0.00 in    
Sea Level Pressure  
Sea Level Pressure 30.10 in    
Wind  
Wind Speed 5 mph (WNW)    
Max Wind Speed 14 mph    
Max Gust Speed 18 mph    
Visibility 10 miles    
Events      
T = Trace of Precipitation, MM = Missing Value Source: NWS Daily Summary

Daily Weather History Graph

Daily Weather History Graph

Search for Another Location

Airport or City:

Trip Planner

Search our weather history database for the weather conditions in past years. The results will help you decide how hot, cold, wet, or windy it might be!

Date:

Astronomy

Nov. 23, 2013 Rise Set
Actual Time 6:59 AM EST 5:26 PM EST
Civil Twilight 6:33 AM EST 5:52 PM EST
Nautical Twilight 6:04 AM EST 6:21 PM EST
Astronomical Twilight 5:35 AM EST 6:50 PM EST
Moon 10:44 PM EST (11/23) 11:23 AM EST (11/23)
Length of Visible Light 11h 18m
Length of Day
10h 26m
Waning Gibbous, 70% of the Moon is Illuminated
Nov 23
Waning Gibbous
Nov 25
Last Quarter
Dec 2
New
Dec 9
First Quarter
Dec 17
Full

Hourly Weather History & Observations

Time (EST) Temp. Heat Index Dew Point Humidity Pressure Visibility Wind Dir Wind Speed Gust Speed Precip Events Conditions
12:56 AM 60.1 °F - 60.1 °F 100% 30.15 in 10.0 mi Calm Calm - N/A   Clear
1:52 AM 60.8 °F - 59.0 °F 94% 30.15 in 10.0 mi Calm Calm - N/A   Partly Cloudy
1:56 AM 60.1 °F - 59.0 °F 96% 30.15 in 10.0 mi Calm Calm - N/A   Partly Cloudy
2:56 AM 57.9 °F - 57.9 °F 100% 30.13 in 10.0 mi Calm Calm - N/A   Partly Cloudy
3:12 AM 60.1 °F - 60.1 °F 100% 30.13 in 3.0 mi North 4.6 mph - N/A   Mostly Cloudy
3:25 AM 59.0 °F - 59.0 °F 100% 30.13 in 10.0 mi Calm Calm - N/A   Clear
3:56 AM 57.9 °F - 57.9 °F 100% 30.12 in 10.0 mi South 3.5 mph - N/A   Clear
4:56 AM 57.9 °F - 57.0 °F 97% 30.11 in 10.0 mi Calm Calm - N/A   Clear
5:56 AM 55.9 °F - 55.9 °F 100% 30.11 in 10.0 mi Calm Calm - N/A   Partly Cloudy
6:56 AM 57.0 °F - 57.0 °F 100% 30.13 in 10.0 mi NNW 3.5 mph - N/A   Scattered Clouds
7:18 AM 57.9 °F - 57.9 °F 100% 30.13 in 3.0 mi NW 3.5 mph - N/A   Scattered Clouds
7:56 AM 60.1 °F - 60.1 °F 100% 30.13 in 6.0 mi Calm Calm - N/A   Scattered Clouds
8:56 AM 66.0 °F - 64.0 °F 93% 30.14 in 10.0 mi Calm Calm - N/A   Partly Cloudy
9:56 AM 73.0 °F - 64.9 °F 76% 30.13 in 10.0 mi SSW 3.5 mph - N/A   Partly Cloudy
10:56 AM 75.9 °F - 64.9 °F 69% 30.12 in 10.0 mi SSW 5.8 mph - N/A   Partly Cloudy
11:56 AM 79.0 °F - 63.0 °F 58% 30.09 in 10.0 mi WNW 8.1 mph - N/A   Partly Cloudy
12:56 PM 81.0 °F 81.6 °F 60.1 °F 49% 30.05 in 10.0 mi West 6.9 mph - N/A   Partly Cloudy
1:56 PM 80.1 °F 81.2 °F 62.1 °F 54% 30.03 in 10.0 mi WNW 8.1 mph - N/A   Scattered Clouds
2:56 PM 80.1 °F 81.2 °F 62.1 °F 54% 30.02 in 10.0 mi SW 6.9 mph - N/A   Scattered Clouds
3:56 PM 78.1 °F - 62.1 °F 58% 30.02 in 10.0 mi West 11.5 mph - N/A   Mostly Cloudy
4:56 PM 73.0 °F - 66.0 °F 79% 30.03 in 10.0 mi WNW 4.6 mph - 0.00 in   Mostly Cloudy
5:56 PM 71.1 °F - 64.9 °F 81% 30.04 in 10.0 mi NW 10.4 mph - 0.00 in   Mostly Cloudy
6:56 PM 69.1 °F - 64.9 °F 87% 30.06 in 10.0 mi WNW 4.6 mph - N/A   Overcast
7:56 PM 69.1 °F - 64.9 °F 87% 30.07 in 10.0 mi NNW 4.6 mph - N/A   Overcast
8:36 PM 69.1 °F - 64.9 °F 87% 30.07 in 10.0 mi NNW 6.9 mph - N/A   Overcast
8:56 PM 68.0 °F - 64.9 °F 90% 30.08 in 10.0 mi NNW 4.6 mph - N/A   Overcast
9:14 PM 68.0 °F - 64.0 °F 87% 30.08 in 10.0 mi NNW 6.9 mph - N/A   Overcast
9:56 PM 66.0 °F - 62.1 °F 87% 30.09 in 10.0 mi NNW 11.5 mph - N/A   Overcast
10:56 PM 64.0 °F - 61.0 °F 90% 30.10 in 10.0 mi NW 9.2 mph - N/A   Mostly Cloudy
11:56 PM 63.0 °F - 59.0 °F 87% 30.10 in 10.0 mi NNW 6.9 mph - N/A   Mostly Cloudy